sat.trackr.live / text

‹ back to catalog

ISS (ZVEZDA)

NORAD 26400 · 2000-037A

PAYLOAD ACTIVE UNKNOWN

§ Identity

Operator
Country
ISS
Launch date
2000-07-12
Launch site
TYMSC
Launch vehicle
Mass (kg)
RCS (m²)
32.94

External: N2YO · Heavens-Above · Gunter

§ Orbital elements

Epoch: 2026-05-25T03:56:27.328416Z

Period
92.94 min
Inclination
51.6330°
Eccentricity
0.0007478
Mean motion
15.49361343 rev/d
Perigee alt
413.5 km
Apogee alt
423.7 km
Semi-major
6,796.7 km
B*
1.8471e-4
RAAN
54.0759°
Arg perigee
95.4333°
Mean anomaly
264.7509°
Rev number
56,795

§ Raw data

ISS (ZVEZDA)1 26400U 00037A   26145.16420519  .00009873  00000+0  18471-3 0  99982 26400  51.6330  54.0759 0007478  95.4333 264.7509 15.49361343567959

JSON: /api/v1/satellites/26400 · /tle

For live sub-satellite position, see the globe view (requires WebGL).

§ Visibility from observer

Set your observer location to see the next 7 days of passes ≥ 10°. The values pass through the URL so the page stays shareable.

No JS? Fill the form by hand. The geolocation button needs JavaScript.